Location: Newark
(34.1333°N, 7.9667°W)
Time: 11:06:29
(UTC+00:00)

DUCHIFAT 1 - Pass Details

Date: 07 June 2023
Orbit: 561 x 575 km, 98.1° (Epoch: 21 September)

Event Time Altitude Azimuth Distance (km) Brightness Sun altitude
Rises 03:31:56 0° 19° (NNE) 2,824 ? -18.7°
Reaches altitude 10° 03:34:10 10° 25° (NNE) 1,919 ? -18.3°
Maximum altitude 03:38:11 47° 100° (E) 785 ? -17.8°
Enters shadow 03:41:09 17° 169° (S) 1,507 ? -17.3°
